Measurements were made at the meteorological tower in Juelich (50.90 N / 6.40 E) at an altitude of 100 m,
"Instrument: Fast Greenhouse Gas Analyzer (FGGA), Los Gatos Inc.",
Responsible PI: Dr. Marc von Hobe; Forschungszentrum Juelich GmbH; IEK-7; email: m.von.hobe@fz-juelich.de,
NaN or negative numbers are fill values (i.e. no valid measurements were made at that time),
Uncertainties are given as the 1-sigma standard deviation over each 10 minute intervals. In each interval ~600 individual measurements are carried out so that the standard error of the mean is approximately sigma/sqrt(600).,
time_utc,CO2_ppm,stdev_CO2_ppm,CH4_ppm,stdev_CH4_ppm,H2O_ppm,stdev_H2O_ppm
"2015-07-01 00:05:00 000",405.133,0.959729,1.98712,0.00578829,12371.7,117.307
"2015-07-01 00:15:00 000",405.909,0.905852,1.99812,0.00604538,12392.2,116.663
"2015-07-01 00:25:00 000",405.989,0.932970,1.98562,0.00722692,12233.0,122.654
"2015-07-01 00:35:00 000",406.619,0.969796,1.98426,0.00690826,12063.7,131.923
"2015-07-01 00:45:00 000",407.880,1.04696,1.98890,0.00633912,12034.2,124.388
"2015-07-01 00:55:00 000",409.248,1.01027,1.99114,0.00657963,12002.9,128.593
"2015-07-01 01:05:00 000",410.449,1.12273,1.98922,0.00609659,11943.7,124.529
"2015-07-01 01:15:00 000",411.909,1.41212,1.98648,0.00773233,11882.5,147.511
"2015-07-01 01:25:00 000",413.809,1.48700,1.98522,0.00565217,11836.0,120.214
"2015-07-01 01:35:00 000",413.919,1.64969,1.97966,0.00791797,11654.9,206.800
"2015-07-01 01:45:00 000",412.434,1.37401,1.97480,0.00699108,11403.6,143.592
"2015-07-01 01:55:00 000",412.622,1.36068,1.97318,0.00533479,11317.8,115.664
"2015-07-01 02:05:00 000",414.860,1.33507,1.98049,0.00653511,11399.9,106.975
"2015-07-01 02:15:00 000",417.681,1.39134,1.99019,0.00879570,11524.9,115.592
"2015-07-01 02:25:00 000",418.805,1.16341,1.99584,0.00715023,11582.6,96.7312
"2015-07-01 02:35:00 000",419.560,1.32491,1.99057,0.00893125,11606.4,103.570
"2015-07-01 02:45:00 000",419.547,1.34235,1.98779,0.00648241,11587.0,110.587
"2015-07-01 02:55:00 000",419.458,1.62892,1.98501,0.00676451,11651.9,106.540
"2015-07-01 03:05:00 000",417.714,1.31451,1.97838,0.00693235,11577.0,97.1837
"2015-07-01 03:15:00 000",417.949,2.31413,1.97624,0.00953180,11573.8,108.458
"2015-07-01 03:25:00 000",414.902,2.20213,1.96208,0.00785154,11464.4,106.542
"2015-07-01 03:35:00 000",415.613,2.03172,1.96775,0.00810130,11537.0,109.351
"2015-07-01 03:45:00 000",420.302,2.80564,1.98134,0.00922734,11730.1,113.870
"2015-07-01 03:55:00 000",420.368,1.82586,1.97645,0.00795612,11757.0,96.4657
"2015-07-01 04:05:00 000",422.510,1.69120,1.98371,0.00712025,11758.4,103.230
"2015-07-01 04:15:00 000",423.792,1.49320,1.98164,0.00683125,11807.2,89.8935
"2015-07-01 04:25:00 000",424.076,1.26157,1.98280,0.00603619,11845.4,90.2659
"2015-07-01 04:35:00 000",423.598,1.41155,1.98515,0.00709993,11847.7,89.2229
"2015-07-01 04:45:00 000",424.209,1.61449,1.98581,0.00742077,11888.4,89.8820
"2015-07-01 04:55:00 000",423.189,1.86552,1.98096,0.00650255,11863.4,89.8865
"2015-07-01 05:05:00 000",424.817,1.57252,1.98496,0.00536373,11902.0,88.0584
"2015-07-01 05:15:00 000",426.267,1.21299,1.98801,0.00477384,11938.1,88.8636
"2015-07-01 05:25:00 000",426.673,1.38934,1.98792,0.00552026,11982.8,94.5683
"2015-07-01 05:35:00 000",426.443,1.59000,1.98996,0.00578403,12032.2,99.3112
"2015-07-01 05:45:00 000",427.601,1.51360,1.99053,0.00547224,12071.6,110.312
"2015-07-01 05:55:00 000",426.810,1.26365,1.98828,0.00539900,12090.1,100.200
"2015-07-01 06:05:00 000",428.111,1.34166,1.99250,0.00484534,12207.5,104.074
"2015-07-01 06:15:00 000",429.353,1.12839,1.99409,0.00423278,12346.1,108.861
"2015-07-01 06:25:00 000",429.466,0.963517,1.99540,0.00418034,12570.9,120.936
"2015-07-01 06:35:00 000",425.899,2.09639,1.99056,0.00547983,12511.3,162.550
"2015-07-01 06:45:00 000",426.031,1.35426,1.99511,0.00444059,12747.3,136.374
"2015-07-01 06:55:00 000",422.298,1.23608,1.99652,0.00532920,12866.8,154.134
"2015-07-01 07:05:00 000",420.258,1.37955,1.99714,0.00467857,13037.5,133.977
"2015-07-01 07:15:00 000",415.869,1.50800,1.99260,0.00513977,12961.7,157.218
"2015-07-01 07:25:00 000",412.944,1.32210,1.99232,0.00546376,12805.0,168.619
"2015-07-01 07:35:00 000",410.501,1.60976,1.99565,0.00679661,12798.2,161.687
"2015-07-01 07:45:00 000",408.139,1.00964,1.99738,0.00704063,12848.3,173.685
"2015-07-01 07:55:00 000",405.840,1.58937,1.98846,0.00822140,12736.7,196.037
"2015-07-01 08:05:00 000",403.019,1.00164,1.98316,0.00658952,12616.5,219.066
"2015-07-01 08:15:00 000",401.479,1.08937,1.98161,0.00690408,12664.8,214.814
"2015-07-01 08:25:00 000",400.511,1.02957,1.98557,0.00764309,12669.5,198.554
"2015-07-01 08:35:00 000",398.430,1.23921,1.97418,0.00797545,12640.6,214.301
"2015-07-01 08:45:00 000",396.296,0.970925,1.96341,0.00616182,12634.7,158.923
"2015-07-01 08:55:00 000",394.719,0.999318,1.94981,0.00521349,12423.0,177.951
"2015-07-01 09:05:00 000",393.384,1.01027,1.94604,0.00436313,12609.9,149.730
"2015-07-01 09:15:00 000",392.447,0.935722,1.94083,0.00418328,12367.9,249.054
"2015-07-01 09:25:00 000",391.957,0.994037,1.94025,0.00407384,12361.2,217.147
"2015-07-01 09:35:00 000",391.720,1.02629,1.93832,0.00455352,12345.8,167.647
"2015-07-01 09:45:00 000",392.441,1.41904,1.94214,0.00660994,12498.0,247.433
"2015-07-01 09:55:00 000",390.641,0.963115,1.93607,0.00417340,12579.2,178.772
"2015-07-01 10:05:00 000",390.617,1.05912,1.93708,0.00417837,12597.5,156.080
"2015-07-01 10:15:00 000",389.555,1.06220,1.93336,0.00387395,12609.8,159.623
"2015-07-01 10:25:00 000",388.247,0.886649,1.93014,0.00433063,12513.0,306.856
"2015-07-01 10:35:00 000",387.358,0.929074,1.92766,0.00387317,12329.9,176.212
"2015-07-01 10:45:00 000",386.585,0.966780,1.92617,0.00387695,12317.3,142.268
"2015-07-01 10:55:00 000",386.055,0.940942,1.92484,0.00388253,12355.1,193.109
"2015-07-01 11:05:00 000",385.787,1.00116,1.92359,0.00379595,12248.3,153.944
"2015-07-01 11:15:00 000",385.223,0.892482,1.92244,0.00371448,12411.3,141.084
"2015-07-01 11:25:00 000",385.150,0.850516,1.92262,0.00414704,12359.1,159.660
"2015-07-01 11:35:00 000",384.735,0.873562,1.92135,0.00395165,12480.5,158.604
"2015-07-01 11:45:00 000",384.783,0.912381,1.92025,0.00403205,12509.8,177.114
"2015-07-01 11:55:00 000",384.782,0.830520,1.91885,0.00395989,12356.4,151.297
"2015-07-01 12:05:00 000",384.667,0.946028,1.91948,0.00397474,12515.0,150.553
"2015-07-01 12:15:00 000",384.918,0.848175,1.91907,0.00392422,12544.1,142.969
"2015-07-01 12:25:00 000",384.837,0.967246,1.91993,0.00418630,12847.0,249.907
"2015-07-01 12:35:00 000",384.520,0.863201,1.91894,0.00388437,13043.8,186.662
"2015-07-01 12:45:00 000",384.958,0.824242,1.91937,0.00409757,12967.8,137.904
"2015-07-01 12:55:00 000",385.080,0.860146,1.91967,0.00369937,13082.2,106.366
"2015-07-01 13:05:00 000",384.721,0.878848,1.91854,0.00400469,13381.1,165.114
"2015-07-01 13:15:00 000",384.854,0.861471,1.91823,0.00397218,13300.9,158.988
"2015-07-01 13:25:00 000",384.769,0.834508,1.91746,0.00409011,13242.9,150.539
"2015-07-01 13:35:00 000",384.581,0.883489,1.91733,0.00382177,13314.1,169.614
"2015-07-01 13:45:00 000",384.245,0.889672,1.91709,0.00412178,13514.1,223.999
"2015-07-01 13:55:00 000",384.216,0.862821,1.91637,0.00394017,13407.9,161.015
"2015-07-01 14:05:00 000",384.011,0.854271,1.91592,0.00423521,13375.5,146.430
"2015-07-01 14:15:00 000",383.920,0.862432,1.91632,0.00409575,13375.2,145.211
"2015-07-01 14:25:00 000",383.726,0.858769,1.91368,0.00368348,13421.7,168.983
"2015-07-01 14:35:00 000",383.765,0.877497,1.91347,0.00410501,13207.3,186.231
"2015-07-01 14:45:00 000",383.577,0.878932,1.91412,0.00410570,13221.7,162.309
"2015-07-01 14:55:00 000",383.504,0.887213,1.91260,0.00395594,13125.2,162.983
"2015-07-01 15:05:00 000",383.412,0.851657,1.91066,0.00414787,12930.3,158.612
"2015-07-01 15:15:00 000",383.255,0.800893,1.90900,0.00404407,12807.1,169.209
"2015-07-01 15:25:00 000",383.366,0.821256,1.90988,0.00439476,12647.0,130.217
"2015-07-01 15:35:00 000",383.467,0.884794,1.90830,0.00416092,12486.4,185.483
"2015-07-01 15:45:00 000",383.596,0.896549,1.90653,0.00378708,12367.7,125.147
"2015-07-01 15:55:00 000",383.449,0.868380,1.90772,0.00394630,12552.3,183.260
"2015-07-01 16:05:00 000",383.680,0.907712,1.90693,0.00396974,12332.2,132.998
"2015-07-01 16:15:00 000",383.926,0.911668,1.90664,0.00453841,12157.1,104.930
"2015-07-01 16:25:00 000",384.113,0.857142,1.90537,0.00413128,12135.8,98.8227
"2015-07-01 16:35:00 000",384.593,0.877301,1.90553,0.00415010,12135.0,163.763
"2015-07-01 16:45:00 000",385.044,0.844525,1.90795,0.00423279,12173.6,106.143
"2015-07-01 16:55:00 000",385.416,0.837376,1.90702,0.00404914,12221.9,144.354
"2015-07-01 17:05:00 000",385.491,0.816977,1.90901,0.00419907,12394.6,119.570
"2015-07-01 17:15:00 000",385.526,0.826465,1.90830,0.00416708,12413.4,117.025
"2015-07-01 17:25:00 000",385.549,0.825286,1.91014,0.00435032,12597.5,122.442
"2015-07-01 17:35:00 000",385.466,0.864803,1.90795,0.00418796,12615.3,115.512
"2015-07-01 17:45:00 000",385.257,0.889230,1.90596,0.00393994,12489.5,119.595
"2015-07-01 17:55:00 000",385.470,0.862503,1.90754,0.00395400,12614.6,116.909
"2015-07-01 18:05:00 000",385.376,0.817801,1.90892,0.00418734,12544.1,105.235
"2015-07-01 18:15:00 000",385.432,0.895586,1.90786,0.00401140,12486.2,102.537
"2015-07-01 18:25:00 000",385.526,0.875949,1.90865,0.00424764,12548.2,94.4368
"2015-07-01 18:35:00 000",385.365,0.851122,1.90948,0.00401358,12527.1,77.7354
"2015-07-01 18:45:00 000",385.459,0.863878,1.90961,0.00379112,12582.1,81.3885
"2015-07-01 18:55:00 000",385.775,0.847234,1.91332,0.00460541,12568.0,93.0997
"2015-07-01 19:05:00 000",385.861,0.878795,1.91994,0.00446789,12502.9,88.0303
"2015-07-01 19:15:00 000",386.278,0.891552,1.92490,0.00424378,12479.4,72.0258
"2015-07-01 19:25:00 000",386.473,0.860515,1.92174,0.00439768,12502.2,74.4579
"2015-07-01 19:35:00 000",387.072,0.895942,1.92410,0.00460971,12574.6,78.7887
"2015-07-01 19:45:00 000",387.654,0.824765,1.92375,0.00461715,12664.3,72.1929
"2015-07-01 19:55:00 000",388.473,0.987957,1.92354,0.00576358,12811.1,81.7539
"2015-07-01 20:05:00 000",389.629,0.946535,1.91758,0.00447549,12965.3,76.9001
"2015-07-01 20:15:00 000",390.718,1.04015,1.91929,0.00402037,13112.9,77.7887
"2015-07-01 20:25:00 000",391.757,0.966893,1.92373,0.00391045,13230.1,69.1230
"2015-07-01 20:35:00 000",392.642,0.965455,1.92586,0.00388972,13338.4,68.9566
"2015-07-01 20:45:00 000",393.436,1.04474,1.92488,0.00420784,13410.0,67.7113
"2015-07-01 20:55:00 000",394.313,0.930621,1.93134,0.00444816,13455.4,64.9978
"2015-07-01 21:05:00 000",395.113,0.897778,1.93337,0.00442951,13484.4,64.3342
"2015-07-01 21:15:00 000",395.339,0.920054,1.92927,0.00451241,13419.9,67.0678
"2015-07-01 21:25:00 000",395.141,0.898393,1.92004,0.00378386,13367.5,79.6818
"2015-07-01 21:35:00 000",395.377,0.912431,1.92101,0.00413462,13305.7,71.1903
"2015-07-01 21:45:00 000",395.730,0.844748,1.92226,0.00450858,13317.2,73.9764
"2015-07-01 21:55:00 000",395.947,0.955573,1.92831,0.00440761,13384.2,72.5419
"2015-07-01 22:05:00 000",397.134,1.18108,1.93127,0.00487920,13422.8,76.5758
"2015-07-01 22:15:00 000",399.167,1.05727,1.93490,0.00470088,13457.4,84.3139
"2015-07-01 22:25:00 000",398.054,1.32434,1.92964,0.00508946,13166.2,162.013
"2015-07-01 22:35:00 000",398.311,1.82270,1.93022,0.00586065,12900.6,334.433
"2015-07-01 22:45:00 000",398.604,1.18633,1.93317,0.00570684,12757.1,166.710
"2015-07-01 22:55:00 000",399.369,1.08624,1.93683,0.00513795,12729.8,126.721
"2015-07-01 23:05:00 000",400.186,1.05368,1.93928,0.00518668,12722.0,143.310
"2015-07-01 23:15:00 000",400.547,0.980251,1.93776,0.00559922,12886.0,134.069
"2015-07-01 23:25:00 000",400.218,0.985863,1.93887,0.00588083,12859.1,143.695
"2015-07-01 23:35:00 000",400.670,1.05241,1.94276,0.00603062,12672.8,142.961
"2015-07-01 23:45:00 000",401.347,0.931059,1.94245,0.00583609,12581.4,134.246
"2015-07-01 23:55:00 000",401.691,1.05045,1.94371,0.00695291,12623.3,137.559
"2015-07-02 00:05:00 000",402.062,1.01516,1.94172,0.00731065,12672.8,144.475
"2015-07-02 00:15:00 000",402.418,1.16328,1.94286,0.00707801,12752.2,140.998
"2015-07-02 00:25:00 000",402.323,1.07271,1.93901,0.00678622,12769.7,161.317
"2015-07-02 00:35:00 000",402.610,1.20023,1.94150,0.00796309,12886.2,191.383
"2015-07-02 00:45:00 000",404.747,1.25894,1.95243,0.00765970,13265.7,165.678
"2015-07-02 00:55:00 000",404.785,1.39234,1.94889,0.00730171,13331.3,172.810
"2015-07-02 01:05:00 000",403.834,1.65891,1.94559,0.00770451,13438.1,167.742
"2015-07-02 01:15:00 000",405.604,2.44173,1.94359,0.00726286,13491.9,168.105
"2015-07-02 01:25:00 000",406.358,1.59893,1.94693,0.00742698,13574.4,168.511
"2015-07-02 01:35:00 000",405.311,1.32884,1.94651,0.00742958,13606.6,166.266
"2015-07-02 01:45:00 000",405.094,2.06099,1.94435,0.00815847,13636.0,172.420
"2015-07-02 01:55:00 000",406.100,1.55148,1.94772,0.00725125,13677.8,165.400
"2015-07-02 02:05:00 000",406.170,1.74684,1.94516,0.00776530,13679.9,168.464
"2015-07-02 02:15:00 000",405.570,1.61123,1.94835,0.00811401,13772.0,166.578
"2015-07-02 02:25:00 000",403.800,1.89965,1.94441,0.00746779,13741.7,158.903
"2015-07-02 02:35:00 000",404.246,1.65550,1.94576,0.00691729,13783.4,153.323
"2015-07-02 02:45:00 000",406.329,1.61039,1.95029,0.00663580,13834.3,149.842
"2015-07-02 02:55:00 000",406.396,1.71398,1.95033,0.00686054,13885.8,164.567
"2015-07-02 03:05:00 000",407.187,1.43129,1.95420,0.00708993,13925.1,148.343
"2015-07-02 03:15:00 000",407.362,1.40010,1.95248,0.00648425,13936.4,147.640
"2015-07-02 03:25:00 000",408.935,1.38574,1.95730,0.00670383,13964.7,148.563
"2015-07-02 03:35:00 000",409.946,1.34705,1.95675,0.00639324,13965.6,149.612
"2015-07-02 03:45:00 000",410.331,1.86566,1.95601,0.00679285,13972.8,147.811
"2015-07-02 03:55:00 000",409.906,1.68068,1.95444,0.00616866,13946.8,154.308
"2015-07-02 04:05:00 000",409.437,1.43702,1.95563,0.00661576,13927.0,150.669
"2015-07-02 04:15:00 000",409.555,1.66744,1.95808,0.00699374,13969.4,141.549
"2015-07-02 04:25:00 000",410.721,1.67980,1.96219,0.00680380,13996.4,143.592
"2015-07-02 04:35:00 000",410.262,1.73958,1.96366,0.00701106,14019.4,153.886
"2015-07-02 04:45:00 000",410.972,1.45154,1.96391,0.00632484,14049.8,147.975
"2015-07-02 04:55:00 000",412.274,1.47876,1.96540,0.00636537,14102.6,136.469
"2015-07-02 05:05:00 000",412.609,1.98605,1.96524,0.00645718,14133.9,146.667
"2015-07-02 05:15:00 000",413.939,1.44724,1.96447,0.00623932,14208.8,142.483
"2015-07-02 05:25:00 000",413.716,1.68876,1.96295,0.00616278,14223.2,145.926
"2015-07-02 05:35:00 000",414.086,1.64869,1.96190,0.00630127,14283.7,143.580
"2015-07-02 05:45:00 000",415.045,1.49964,1.96161,0.00582550,14364.3,150.738
"2015-07-02 05:55:00 000",414.980,1.31357,1.96195,0.00570427,14431.1,140.888
"2015-07-02 06:05:00 000",414.169,1.20815,1.96109,0.00601265,14466.0,142.967
"2015-07-02 06:15:00 000",413.978,1.33427,1.96188,0.00639391,14586.9,155.932
"2015-07-02 06:25:00 000",413.425,1.18526,1.96325,0.00623280,14745.9,162.899
"2015-07-02 06:35:00 000",412.508,1.16909,1.96430,0.00591454,14884.3,177.741
"2015-07-02 06:45:00 000",410.917,1.10180,1.96522,0.00637501,14973.6,174.486
"2015-07-02 06:55:00 000",409.501,1.10200,1.97122,0.00767333,15098.1,176.561
"2015-07-02 07:05:00 000",408.247,1.10292,1.97763,0.00649502,15185.2,180.736
"2015-07-02 07:15:00 000",406.311,1.20034,1.97535,0.00616109,15367.6,147.404
"2015-07-02 07:25:00 000",405.658,1.05820,1.97400,0.00506875,15385.3,114.703
"2015-07-02 07:35:00 000",404.608,1.00167,1.97247,0.00468133,15620.6,115.211
"2015-07-02 07:45:00 000",403.868,0.944128,1.97265,0.00422559,15764.9,111.096
"2015-07-02 07:55:00 000",403.269,0.970538,1.98058,0.00725266,15974.4,131.845
"2015-07-02 08:05:00 000",402.545,1.02851,1.98656,0.00469050,16122.9,108.204
"2015-07-02 08:15:00 000",401.637,0.909284,1.98732,0.00484510,16162.4,134.305
"2015-07-02 08:25:00 000",401.018,0.964441,1.98544,0.00531497,16257.2,100.369
"2015-07-02 08:35:00 000",399.751,1.10943,1.98155,0.00422191,16458.3,178.388
"2015-07-02 08:45:00 000",398.681,1.28165,1.97734,0.00705089,16423.1,146.238
"2015-07-02 08:55:00 000",395.147,1.50501,1.95723,0.00887175,16245.2,305.051
"2015-07-02 09:05:00 000",394.844,1.03363,1.95490,0.00498027,16319.8,216.903
"2015-07-02 09:15:00 000",393.980,1.08198,1.95132,0.00477668,16349.2,258.367
"2015-07-02 09:25:00 000",393.898,1.00803,1.94942,0.00428093,16154.1,231.271
"2015-07-02 09:35:00 000",392.993,1.10124,1.94662,0.00480175,16377.9,241.749
"2015-07-02 09:45:00 000",392.563,0.984271,1.94228,0.00433101,16388.0,205.859
"2015-07-02 09:55:00 000",392.748,0.933053,1.94284,0.00487127,16490.1,135.864
"2015-07-02 10:05:00 000",392.402,1.00727,1.94369,0.00526589,16596.4,204.441
"2015-07-02 10:15:00 000",392.550,0.919752,1.94637,0.00492888,16852.7,167.677
"2015-07-02 10:25:00 000",392.482,1.03212,1.94998,0.00557312,16829.8,187.261
"2015-07-02 10:35:00 000",392.802,1.00432,1.95172,0.00481511,16938.1,155.801
"2015-07-02 10:45:00 000",391.792,1.04370,1.94405,0.00483345,16855.4,190.010
"2015-07-02 10:55:00 000",391.588,1.09865,1.94356,0.00572406,16853.0,144.535
"2015-07-02 11:05:00 000",392.184,0.988898,1.94691,0.00432119,17158.4,172.719
"2015-07-02 11:15:00 000",391.577,1.20404,1.94226,0.00545816,17009.6,159.476
"2015-07-02 11:25:00 000",391.264,1.00901,1.93814,0.00506522,17026.6,225.305
"2015-07-02 11:35:00 000",392.645,1.07426,1.94486,0.00467814,17460.4,164.957
"2015-07-02 11:45:00 000",392.715,1.01323,1.94349,0.00474350,17540.6,226.119
"2015-07-02 11:55:00 000",390.197,1.14510,1.93189,0.00582297,16958.8,376.156
"2015-07-02 12:05:00 000",390.685,0.941683,1.93312,0.00437815,17350.4,185.484
"2015-07-02 12:15:00 000",389.516,0.987949,1.92572,0.00472386,16695.9,244.701
"2015-07-02 12:25:00 000",389.659,0.886786,1.92475,0.00481678,16633.8,192.800
"2015-07-02 12:35:00 000",389.525,1.07771,1.92600,0.00498837,16886.3,309.554
"2015-07-02 12:45:00 000",388.702,0.952887,1.92233,0.00459594,16611.6,275.695
"2015-07-02 12:55:00 000",388.777,0.918899,1.92486,0.00412047,16891.8,165.764
"2015-07-02 13:05:00 000",388.192,1.05942,1.91805,0.00696400,16519.3,531.891
"2015-07-02 13:15:00 000",388.930,0.905372,1.92202,0.00464632,16940.7,294.124
"2015-07-02 13:25:00 000",387.586,1.16498,1.90192,0.0117161,15276.8,1081.03
"2015-07-02 13:35:00 000",387.192,0.940999,1.89180,0.00435177,14302.9,201.160
"2015-07-02 13:45:00 000",387.595,0.938712,1.89171,0.00481711,14096.7,385.118
"2015-07-02 13:55:00 000",387.700,0.947978,1.89492,0.00433151,14550.7,173.178
"2015-07-02 14:05:00 000",387.602,1.00333,1.89523,0.00412454,14735.1,244.689
"2015-07-02 14:15:00 000",387.875,0.942508,1.89372,0.00422902,14402.5,235.417
"2015-07-02 14:25:00 000",387.172,0.944450,1.89261,0.00422399,14696.1,139.435
"2015-07-02 14:35:00 000",388.044,1.13754,1.88998,0.00513217,14187.6,554.004
"2015-07-02 14:45:00 000",388.829,0.895665,1.89220,0.00422790,14185.8,112.460
"2015-07-02 14:55:00 000",388.814,1.00846,1.88939,0.00385258,14023.7,310.542
"2015-07-02 15:05:00 000",388.868,0.926696,1.89003,0.00440155,14127.1,289.387
"2015-07-02 15:15:00 000",389.158,0.949698,1.89039,0.00393275,14157.3,255.899
"2015-07-02 15:25:00 000",389.629,0.904036,1.89094,0.00423592,13812.6,185.513
"2015-07-02 15:35:00 000",389.789,0.966277,1.88782,0.00449340,13488.4,280.761
"2015-07-02 15:45:00 000",389.698,0.907456,1.88652,0.00433365,13054.8,177.984
"2015-07-02 15:55:00 000",389.803,0.930317,1.89265,0.0100918,14022.2,989.438
"2015-07-02 16:05:00 000",389.582,0.949654,1.90359,0.00834076,15628.1,852.446
"2015-07-02 16:15:00 000",389.758,0.938248,1.91400,0.00458869,16778.0,243.436
"2015-07-02 16:25:00 000",389.496,0.925294,1.90475,0.0117071,15819.3,1099.05
"2015-07-02 16:35:00 000",389.133,1.01234,1.90069,0.00862450,15853.6,1087.52
"2015-07-02 16:45:00 000",388.873,0.957937,1.90593,0.00444471,17028.2,107.766
"2015-07-02 16:55:00 000",389.188,0.981138,1.90704,0.00435224,17220.6,115.059
"2015-07-02 17:05:00 000",389.276,0.907158,1.90461,0.00433185,17189.8,186.472
"2015-07-02 17:15:00 000",391.641,4.16198,1.93879,0.0578936,17340.4,835.403
"2015-07-02 17:25:00 000",400.496,1.87005,2.06631,0.0254514,19748.6,790.207
"2015-07-02 17:35:00 000",401.392,0.988086,2.08855,0.00624313,20711.0,272.624
"2015-07-02 17:45:00 000",400.432,0.990525,2.09197,0.00415550,21097.4,80.5210
"2015-07-02 17:55:00 000",398.793,1.05524,2.08926,0.00426916,21146.3,93.7231
"2015-07-02 18:05:00 000",397.982,1.08688,2.08259,0.00567478,21001.0,132.541
"2015-07-02 18:15:00 000",397.208,0.961615,2.07153,0.00651679,20695.4,145.977
"2015-07-02 18:25:00 000",396.273,1.04004,2.06403,0.00790096,20548.7,159.191
"2015-07-02 18:35:00 000",395.052,1.10305,2.04768,0.00814452,20150.2,152.652
"2015-07-02 18:45:00 000",394.951,1.18077,2.03057,0.00762088,19774.8,185.457
"2015-07-02 18:55:00 000",394.678,0.976974,2.02572,0.00487537,19470.1,104.764
"2015-07-02 19:05:00 000",396.119,1.00775,2.02773,0.00536667,19383.6,140.853
"2015-07-02 19:15:00 000",396.169,0.876800,2.02427,0.00444762,19198.7,94.8505
"2015-07-02 19:25:00 000",396.339,0.913473,2.02558,0.00433120,19069.5,100.012
"2015-07-02 19:35:00 000",396.150,0.909763,2.02835,0.00434156,18932.0,73.8816
"2015-07-02 19:45:00 000",396.665,0.925871,2.03123,0.00432727,18883.0,79.0848
"2015-07-02 19:55:00 000",397.119,0.914365,2.03061,0.00513209,18845.4,74.4949
"2015-07-02 20:05:00 000",398.227,1.00054,2.03147,0.00474500,18861.4,77.4982
"2015-07-02 20:15:00 000",398.804,1.02452,2.03363,0.00624964,18796.1,85.6353
"2015-07-02 20:25:00 000",399.945,1.23452,2.02631,0.00554092,18644.0,89.3427
"2015-07-02 20:35:00 000",400.730,1.17563,2.02383,0.00493706,18488.4,94.0065
"2015-07-02 20:45:00 000",401.556,1.08672,2.03314,0.00593312,18435.6,80.4472
"2015-07-02 20:55:00 000",401.701,0.990835,2.03674,0.00486268,18388.0,91.7851
"2015-07-02 21:05:00 000",402.202,1.01208,2.03867,0.00470773,18248.5,83.0155
"2015-07-02 21:15:00 000",403.524,1.06130,2.03949,0.00471293,18223.6,78.6983
"2015-07-02 21:25:00 000",404.600,0.969246,2.03986,0.00440752,18165.9,84.6140
"2015-07-02 21:35:00 000",405.267,0.899889,2.04658,0.00528169,18152.8,78.8153
"2015-07-02 21:45:00 000",406.117,0.907911,2.05499,0.00503173,18160.9,78.5544
"2015-07-02 21:55:00 000",407.236,0.878132,2.05950,0.00442955,18160.1,80.9472
"2015-07-02 22:05:00 000",407.810,0.856651,2.06280,0.00427607,18176.4,84.0316
"2015-07-02 22:15:00 000",407.508,1.03626,2.05052,0.00907741,18119.9,97.8536
"2015-07-02 22:25:00 000",406.363,1.48746,2.02786,0.0139412,17819.0,174.221
"2015-07-02 22:35:00 000",404.917,1.13772,2.00299,0.00695709,17218.2,132.824
"2015-07-02 22:45:00 000",405.959,0.976054,2.00328,0.00568337,17088.1,90.1332
"2015-07-02 22:55:00 000",405.637,1.44139,1.98709,0.0126995,16788.5,202.855
"2015-07-02 23:05:00 000",405.563,1.70585,1.97900,0.0115328,16440.5,146.780
"2015-07-02 23:15:00 000",405.146,1.21731,1.98407,0.00459528,16256.7,97.4474
"2015-07-02 23:25:00 000",407.544,2.70585,2.00661,0.0236117,16255.6,147.177
"2015-07-02 23:35:00 000",413.218,1.27044,2.06371,0.00984936,16717.8,117.841
"2015-07-02 23:45:00 000",414.979,0.949973,2.08078,0.00416505,16979.9,100.115
"2015-07-02 23:55:00 000",415.434,1.08081,2.07909,0.00582327,17052.6,90.2113
"2015-07-03 00:05:00 000",415.326,1.20132,2.07366,0.00634604,17104.7,93.1146
"2015-07-03 00:15:00 000",412.855,1.35211,2.05302,0.00717428,17091.9,95.7326
"2015-07-03 00:25:00 000",411.500,0.897767,2.04305,0.00509920,17102.0,93.4119
"2015-07-03 00:35:00 000",411.402,0.907079,2.03785,0.00440138,17137.3,99.0626
"2015-07-03 00:45:00 000",411.642,0.995548,2.03628,0.00434221,17160.1,94.7244
"2015-07-03 00:55:00 000",412.421,1.11501,2.03942,0.00404137,17149.1,92.7722
"2015-07-03 01:05:00 000",412.984,1.22575,2.04027,0.00403974,17175.7,96.3769
"2015-07-03 01:15:00 000",412.366,1.06475,2.04041,0.00399400,17170.7,95.9626
"2015-07-03 01:25:00 000",412.349,0.998964,2.04079,0.00423256,17166.6,91.7153
"2015-07-03 01:35:00 000",412.180,1.23699,2.04128,0.00482985,17147.9,92.1056
"2015-07-03 01:45:00 000",411.647,1.04215,2.04460,0.00421760,17145.7,91.8148
"2015-07-03 01:55:00 000",411.807,0.927031,2.04393,0.00412130,17176.3,96.5935
"2015-07-03 02:05:00 000",411.771,0.933652,2.04154,0.00457995,17208.5,95.5798